Location: Härggis
(46.9540°N, 8.4897°E)
Time: 23:30:37
(UTC+00:00)

Cosmos 2074 Rocket - Pass Details

Date: 27 May 2022
Orbit: 968 x 985 km, 82.9° (Epoch: 02 July)

Event Time Altitude Azimuth Distance (km) Brightness Sun altitude
Rises 01:45:52 0° 346° (NNW) 3,701 7.7 -14.6°
Reaches altitude 10° 01:48:27 10° 342° (NNW) 2,750 6.9 -14.3°
Maximum altitude 01:54:28 49° 269° (W) 1,250 4.3 -13.7°
Enters shadow 01:59:11 17° 201° (SSW) 2,287 5.3 -13.2°
